Location: Abraham Lincoln Continuation High School
(33.9711°N, 117.3662°W)
Time: 06:44:32
(UTC+00:00)

CZ-4 R/B - Pass Details

Date: 21 September 2020
Orbit: 530 x 600 km, 97.7° (Epoch: 26 October)

Event Time Altitude Azimuth Distance (km) Brightness Sun altitude
Rises 02:41:08 0° 175° (S) 2,829 4.8 -11.8°
Reaches altitude 10° 02:43:19 10° 179° (S) 1,933 4.0 -12.2°
Maximum altitude 02:47:28 60° 260° (W) 687 2.1 -13.1°
Drops below altitude 10° 02:51:38 10° 340° (NNW) 1,938 4.5 -13.9°
Sets 02:53:50 0° 344° (NNW) 2,838 5.3 -14.4°
